Location: Newark
(44.1667°N, 8.2500°E)
Time: 03:12:24
(UTC+00:00)

Vanguard 2 - Pass Details

Date: 12 December 2019
Orbit: 553 x 2938 km, 32.9° (Epoch: 23 January)

Event Time Altitude Azimuth Distance (km) Brightness Sun altitude
Exits shadow 00:23:56 24° 103° (ESE) 4,690 11.4 -65.2°
Drops below altitude 10° 00:29:43 10° 92° (E) 5,737 12.1 -64.5°
Sets 00:34:22 0° 86° (E) 6,653 12.6 -64.0°
